Time,TemperatureF,DewpointF,PressureIn,WindDirection,WindDirectionDegrees,WindSpeedMPH,WindSpeedGustMPH,Humidity,HourlyPrecipIn,Conditions,Clouds,dailyrainin,SoftwareType,DateUTC
2013-04-11 18:32:00,83.2,72.8,29.85,South,180,6.3,6.3,71,0.00,,,0.00,WUHU216HW,2013-04-11 22:32:00,
2013-04-11 18:33:00,82.4,72.5,29.86,SSE,158,2.2,6.5,72,0.00,,,0.00,WUHU216HW,2013-04-11 22:33:00,
2013-04-11 18:37:00,82.4,72.5,29.85,SSE,158,2.2,7.6,72,0.00,,,0.00,WUHU216HW,2013-04-11 22:37:00,
2013-04-11 18:42:00,82.4,72.9,29.86,SE,135,6.5,7.6,73,0.00,,,0.00,WUHU216HW,2013-04-11 22:42:00,
2013-04-11 19:00:00,81.7,72.2,29.86,SSE,158,4.3,4.3,73,0.00,,,0.00,WUHU216HW,2013-04-11 23:00:00,
2013-04-11 19:05:00,81.7,72.2,29.86,SSE,158,4.3,4.3,73,0.00,,,0.00,WUHU216HW,2013-04-11 23:05:00,
2013-04-11 19:30:00,81.0,72.4,29.86,ESE,113,5.6,5.6,75,0.00,,,0.00,WUHU216HW,2013-04-11 23:30:00,
2013-04-11 19:35:00,81.0,72.4,29.86,ESE,113,5.6,5.6,75,0.00,,,0.00,WUHU216HW,2013-04-11 23:35:00,
2013-04-11 20:00:00,80.3,72.0,29.86,SSE,158,1.8,1.8,76,0.00,,,0.00,WUHU216HW,2013-04-12 00:00:00,
2013-04-11 20:05:00,80.3,72.0,29.86,SSE,158,1.8,1.8,76,0.00,,,0.00,WUHU216HW,2013-04-12 00:05:00,
2013-04-11 20:31:00,79.6,72.1,29.86,SSE,158,4.9,4.9,78,0.00,,,0.00,WUHU216HW,2013-04-12 00:31:00,
2013-04-11 20:32:00,79.6,72.1,29.86,SSE,158,4.9,4.9,78,0.00,,,0.00,WUHU216HW,2013-04-12 00:32:00,
2013-04-11 20:37:00,79.6,72.1,29.86,SSE,158,4.9,4.9,78,0.00,,,0.00,WUHU216HW,2013-04-12 00:37:00,
2013-04-11 21:00:00,79.2,72.5,29.86,SE,135,3.6,3.6,80,0.00,,,0.00,WUHU216HW,2013-04-12 01:00:00,
2013-04-11 21:05:00,79.2,72.5,29.86,SSE,158,2.5,3.6,80,0.00,,,0.00,WUHU216HW,2013-04-12 01:05:00,
2013-04-11 21:30:00,78.8,72.5,29.86,SE,135,2.2,2.2,81,0.00,,,0.00,WUHU216HW,2013-04-12 01:30:00,
2013-04-11 21:35:00,78.8,72.5,29.86,SE,135,2.2,2.2,81,0.00,,,0.00,WUHU216HW,2013-04-12 01:35:00,
2013-04-11 22:00:00,78.5,72.2,29.86,SE,135,1.1,1.1,81,0.00,,,0.00,WUHU216HW,2013-04-12 02:00:00,
2013-04-11 22:01:00,78.5,72.2,29.86,SE,135,1.1,1.1,81,0.00,,,0.00,WUHU216HW,2013-04-12 02:01:00,
2013-04-11 22:06:00,78.5,72.2,29.86,SE,135,1.1,1.1,81,0.00,,,0.00,WUHU216HW,2013-04-12 02:06:00,
2013-04-11 22:30:00,77.9,72.0,29.84,SSE,158,2.2,2.2,82,0.00,,,0.00,WUHU216HW,2013-04-12 02:30:00,
2013-04-11 22:42:00,77.9,72.0,29.84,SSE,158,2.2,2.2,82,0.00,,,0.00,WUHU216HW,2013-04-12 02:42:00,
2013-04-11 22:43:00,77.9,72.0,29.84,SSE,158,2.2,2.2,82,0.00,,,0.00,WUHU216HW,2013-04-12 02:43:00,
2013-04-11 22:48:00,77.9,72.0,29.84,SSE,158,2.2,2.2,82,0.00,,,0.00,WUHU216HW,2013-04-12 02:48:00,
2013-04-11 23:00:00,77.8,71.8,29.84,SSE,158,3.1,3.1,82,0.00,,,0.00,WUHU216HW,2013-04-12 03:00:00,
2013-04-11 23:05:00,77.8,71.8,29.84,SSE,158,3.1,3.1,82,0.00,,,0.00,WUHU216HW,2013-04-12 03:05:00,
2013-04-11 23:30:00,77.4,71.8,29.84,SSE,158,3.4,3.4,83,0.00,,,0.00,WUHU216HW,2013-04-12 03:30:00,
2013-04-11 23:36:00,77.4,71.8,29.84,SSE,158,3.4,3.4,83,0.00,,,0.00,WUHU216HW,2013-04-12 03:36:00,